Date String (YYYY-MM-DD hh:mm:ss) UTC,Instrument flags,absolute air pressure of the measurement (hPa),sample flow rate (lpm),inlet stack bypass flow (lpm),air temperature of the measurement (°C),ambient temperature measured by the external sensor (°C),aerosol sample conditioner tube jacket temperature (°C),OPC LED temperature (°C),internal box temperature (°C),relative humidity of the measurement (%),span deviation,mass concentration of particles derived from Lorenz-Mie calculation of OPC scattering (μg/m³),mass concentration of particles derived from Lorenz-Mie calculation of OPC scattering (μg/m³),mass concentration of particles derived from Lorenz-Mie calculation of OPC scattering (μg/m³)
DateTimeUTC,F1_M11,P_M11,Q1_M11,Q2_M11,T1_M11,T2_M11,T3_M11,T4_M11,T5_M11,U1_M11,ZSPAN_M11,X0_M11,X2_M11,X1_M11
2024-06-15 09:00:00,SystemResetWarning,0828.6,4.99,000.00,031.2,030.6,000.0,039.5,033.0,035.1,0000.7,0020.89,0009.48,0007.68
2024-06-15 09:01:00,SystemResetWarning,0828.6,4.99,000.00,031.2,030.6,000.0,039.6,032.9,035.1,0000.4,0021.67,0009.53,0007.68
2024-06-15 09:02:00,SystemResetWarning,0828.6,4.99,000.00,031.2,030.6,000.0,039.6,033.0,035.0,0000.2,0022.22,0009.54,0007.69
2024-06-15 09:03:00,SystemResetWarning,0828.7,5.01,000.00,031.3,030.6,000.0,039.6,033.0,035.1,-000.0,0022.65,0009.60,0007.70
2024-06-15 09:04:00,SystemResetWarning,0828.7,5.01,000.00,031.3,030.6,000.0,039.6,033.0,035.1,0000.3,0022.89,0009.58,0007.71
2024-06-15 09:05:00,SystemResetWarning,0828.7,4.99,000.00,031.3,030.6,000.0,039.6,033.0,035.0,0000.8,0023.06,0009.65,0007.71
2024-06-15 09:06:00,SystemResetWarning,0828.7,4.99,000.00,031.3,030.6,000.0,039.6,033.0,035.0,0000.7,0023.16,0009.71,0007.74
2024-06-15 09:07:00,SystemResetWarning,0828.7,4.99,000.00,031.3,030.6,000.0,039.6,033.0,034.9,0001.0,0022.10,0009.73,0007.76
2024-06-15 09:08:00,SystemResetWarning,0828.7,5.01,000.00,031.3,030.6,000.0,039.6,033.0,034.9,0001.4,0021.07,0009.71,0007.76
2024-06-15 09:09:00,SystemResetWarning,0828.7,5.00,000.00,031.3,030.6,000.0,039.7,032.9,034.6,0002.1,0020.12,0009.70,0007.78
2024-06-15 09:10:00,SystemResetWarning,0828.6,4.99,000.00,031.1,028.8,000.0,039.7,032.0,035.1,0002.6,0019.54,0009.68,0007.79
2024-06-15 09:11:00,SystemResetWarning,0828.6,5.01,000.00,030.6,026.9,000.0,039.7,031.2,036.4,0002.3,0018.45,0009.70,0007.81
2024-06-15 09:12:00,SystemResetWarning,0828.6,5.01,000.00,030.3,026.6,000.0,039.6,030.9,036.8,0002.2,0018.48,0009.69,0007.84
2024-06-15 09:13:00,SystemResetWarning,0828.6,5.00,000.00,030.2,027.1,000.0,039.4,031.1,036.7,0002.0,0018.28,0009.66,0007.86
2024-06-15 09:14:00,SystemResetWarning,0828.6,4.99,000.00,030.1,027.5,000.0,039.2,031.3,036.8,0001.9,0018.03,0009.66,0007.90
2024-06-15 09:15:00,SystemResetWarning,0828.5,5.00,000.00,030.1,027.9,000.0,039.1,031.5,036.8,0001.7,0018.21,0009.70,0007.91
2024-06-15 09:16:00,SystemResetWarning,0828.4,5.01,000.00,030.2,028.3,000.0,039.0,031.6,036.8,0002.0,0018.35,0009.69,0007.95
2024-06-15 09:17:00,SystemResetWarning,0828.4,4.99,000.00,030.2,028.6,000.0,039.0,031.8,036.8,0001.7,0018.51,0009.68,0007.96
2024-06-15 09:18:00,SystemResetWarning,0828.4,5.00,000.00,030.2,028.8,000.0,038.9,031.8,036.7,0001.5,0018.60,0009.69,0007.97
2024-06-15 09:19:00,SystemResetWarning,0828.4,5.00,000.00,030.2,029.0,000.0,038.9,031.9,036.9,0001.1,0019.00,0009.84,0008.01
2024-06-15 09:20:00,SystemResetWarning,0828.5,5.00,000.00,030.2,029.1,000.0,038.9,032.0,036.6,0000.6,0019.29,0009.95,0008.05
2024-06-15 09:21:00,SystemResetWarning,0828.6,5.00,000.00,030.3,029.3,000.0,038.8,032.0,036.6,0000.8,0019.65,0009.98,0008.07
2024-06-15 09:22:00,SystemResetWarning,0828.6,5.00,000.00,030.3,029.4,000.0,038.8,032.0,036.6,0000.9,0020.19,0010.05,0008.11
2024-06-15 09:23:00,SystemResetWarning,0828.6,5.00,000.00,030.3,029.5,000.0,038.8,032.1,036.4,0000.8,0019.93,0010.07,0008.13
2024-06-15 09:24:00,SystemResetWarning,0828.6,4.99,000.00,030.4,029.6,000.0,038.8,032.1,036.2,0001.0,0019.45,0010.05,0008.15
2024-06-15 09:25:00,SystemResetWarning,0828.6,5.00,000.00,030.4,029.7,000.0,038.8,032.2,036.2,0001.1,0020.11,0010.14,0008.16
2024-06-15 09:26:00,SystemResetWarning,0828.6,5.00,000.00,030.4,029.7,000.0,038.8,032.2,036.1,0001.0,0019.97,0010.22,0008.20
2024-06-15 09:27:00,SystemResetWarning,0828.6,4.99,000.00,030.5,029.8,000.0,038.8,032.2,036.0,0001.0,0019.85,0010.25,0008.22
2024-06-15 09:28:00,SystemResetWarning,0828.5,5.00,000.00,030.5,029.8,000.0,038.9,032.3,036.0,0001.1,0019.85,0010.29,0008.22
2024-06-15 09:29:00,SystemResetWarning,0828.6,5.00,000.00,030.5,029.9,000.0,038.9,032.3,036.0,0001.1,0020.25,0010.42,0008.27
2024-06-15 09:30:00,SystemResetWarning,0828.6,5.01,000.00,030.6,029.9,000.0,038.9,032.3,036.0,0001.1,0020.61,0010.37,0008.28
2024-06-15 09:31:00,SystemResetWarning,0828.6,5.01,000.00,030.6,029.9,000.0,038.9,032.3,036.3,0000.9,0021.23,0010.33,0008.27
2024-06-15 09:32:00,SystemResetWarning,0828.5,5.00,000.00,030.6,030.0,000.0,038.9,032.4,036.2,0000.7,0021.72,0010.41,0008.29
2024-06-15 09:33:00,SystemResetWarning,0828.4,4.99,000.00,030.6,030.0,000.0,038.9,032.4,036.1,0000.8,0021.70,0010.44,0008.29
2024-06-15 09:34:00,SystemResetWarning,0828.4,4.99,000.00,030.7,030.0,000.0,038.9,032.4,036.3,0000.9,0022.14,0010.50,0008.28
2024-06-15 09:35:00,SystemResetWarning,0828.4,5.00,000.00,030.7,030.1,000.0,039.0,032.4,036.6,0000.9,0022.25,0010.59,0008.28
2024-06-15 09:36:00,SystemResetWarning,0828.4,5.00,000.00,030.7,030.1,000.0,039.0,032.5,036.6,0000.8,0022.30,0010.58,0008.31
2024-06-15 09:37:00,SystemResetWarning,0828.4,5.00,000.00,030.7,030.1,000.0,039.0,032.5,036.7,0000.6,0021.94,0010.59,0008.33
2024-06-15 09:38:00,SystemResetWarning,0828.5,5.00,000.00,030.8,030.1,000.0,039.0,032.5,036.7,0000.1,0021.80,0010.59,0008.38
2024-06-15 09:39:00,SystemResetWarning,0828.5,5.00,000.00,030.8,030.2,000.0,039.0,032.5,036.5,-000.3,0021.68,0010.61,0008.42
2024-06-15 09:40:00,SystemResetWarning,0828.5,5.01,000.00,030.8,030.2,000.0,039.1,032.5,036.2,-000.4,0021.43,0010.58,0008.44
2024-06-15 09:41:00,SystemResetWarning,0828.5,4.99,000.00,030.8,030.2,000.0,039.1,032.6,036.5,-000.5,0020.74,0010.54,0008.44
2024-06-15 09:42:00,SystemResetWarning,0828.5,4.99,000.00,030.8,030.2,000.0,039.1,032.6,036.8,-000.4,0019.81,0010.64,0008.53
2024-06-15 09:43:00,SystemResetWarning,0828.5,5.00,000.00,030.9,030.2,000.0,039.1,032.6,036.7,-000.4,0019.48,0010.75,0008.63
2024-06-15 09:44:00,SystemResetWarning,0828.5,5.00,000.00,030.9,030.3,000.0,039.1,032.6,036.7,-000.7,0019.34,0010.78,0008.71
2024-06-15 09:45:00,SystemResetWarning,0828.5,5.00,000.00,030.9,030.3,000.0,039.2,032.6,036.7,-000.6,0019.14,0010.88,0008.81
2024-06-15 09:46:00,SystemResetWarning,0828.5,5.00,000.00,030.9,030.3,000.0,039.2,032.7,036.7,-000.6,0018.84,0010.87,0008.89
2024-06-15 09:47:00,SystemResetWarning,0828.4,5.01,000.00,030.9,030.3,000.0,039.2,032.7,036.7,-000.4,0018.42,0010.86,0008.94
2024-06-15 09:48:00,SystemResetWarning,0828.4,5.00,000.00,031.0,030.3,000.0,039.2,032.7,036.6,-000.5,0018.92,0010.89,0009.00
2024-06-15 09:49:00,SystemResetWarning,0828.4,5.00,000.00,031.0,030.4,000.0,039.2,032.7,036.6,-000.1,0019.37,0010.95,0009.04
2024-06-15 09:50:00,SystemResetWarning,0828.4,4.99,000.00,031.0,030.4,000.0,039.3,032.7,036.6,-000.3,0019.63,0011.02,0009.09
2024-06-15 09:51:00,SystemResetWarning,0828.4,4.99,000.00,031.0,030.4,000.0,039.3,032.8,036.6,0000.3,0019.78,0011.08,0009.14
2024-06-15 09:52:00,SystemResetWarning,0828.4,5.00,000.00,031.0,030.4,000.0,039.3,032.8,036.5,0000.3,0020.01,0011.21,0009.24
2024-06-15 09:53:00,SystemResetWarning,0828.4,5.00,000.00,031.1,030.4,000.0,039.3,032.8,036.5,0000.2,0019.99,0011.21,0009.26
2024-06-15 09:54:00,SystemResetWarning,0828.4,5.00,000.00,031.1,030.4,000.0,039.3,032.8,036.4,0000.3,0020.02,0011.17,0009.24
2024-06-15 09:55:00,SystemResetWarning,0828.5,5.00,000.00,031.1,030.4,000.0,039.4,032.8,036.2,0000.4,0020.16,0011.15,0009.22
2024-06-15 09:56:00,SystemResetWarning,0828.5,5.01,000.00,031.1,030.5,000.0,039.4,032.9,036.1,0000.3,0019.95,0011.05,0009.17
2024-06-15 09:57:00,SystemResetWarning,0828.4,5.01,000.00,031.1,030.5,000.0,039.4,032.9,036.1,0000.4,0020.49,0010.98,0009.09
2024-06-15 09:58:00,SystemResetWarning,0828.4,5.01,000.00,031.1,030.5,000.0,039.4,032.9,036.0,0000.5,0021.90,0010.99,0009.05
2024-06-15 09:59:00,SystemResetWarning,0828.4,5.00,000.00,031.1,030.5,000.0,039.4,032.9,035.9,0001.0,0021.16,0010.90,0009.01
